Mitchell Lake Weather Center

Moon Phase Calendar



Mitchell Lake Water Level
Online Cameras

 


      

Current Conditions in Clanton
10/2/2022 2:40:52 PM

82°F
Feels Like 81
Clear
Humidity
41%
Pressure
29.97"
Wind
12.3 mph (N)
Dew Point
56°F
UV Index
4/10 (Moderate)
Visibility
6 mi

Hourly Forecast

Date & Time Sun, Oct 2
2:00 PM
Sun, Oct 2
3:00 PM
Sun, Oct 2
4:00 PM
Sun, Oct 2
5:00 PM
Sun, Oct 2
6:00 PM
Sun, Oct 2
7:00 PM
Sun, Oct 2
8:00 PM
Sun, Oct 2
9:00 PM
Sun, Oct 2
10:00 PM
Sun, Oct 2
11:00 PM
Mon, Oct 3
12:00 AM
Mon, Oct 3
1:00 AM
Mon, Oct 3
2:00 AM
Mon, Oct 3
3:00 AM
Mon, Oct 3
4:00 AM
Mon, Oct 3
5:00 AM
Mon, Oct 3
6:00 AM
Mon, Oct 3
7:00 AM
Mon, Oct 3
8:00 AM
Mon, Oct 3
9:00 AM
Mon, Oct 3
10:00 AM
Mon, Oct 3
11:00 AM
Mon, Oct 3
12:00 PM
Mon, Oct 3
1:00 PM
Mon, Oct 3
2:00 PM
Mon, Oct 3
3:00 PM
Mon, Oct 3
4:00 PM
Mon, Oct 3
5:00 PM
Mon, Oct 3
6:00 PM
Mon, Oct 3
7:00 PM
Mon, Oct 3
8:00 PM
Mon, Oct 3
9:00 PM
Mon, Oct 3
10:00 PM
Mon, Oct 3
11:00 PM
Tue, Oct 4
12:00 AM
Tue, Oct 4
1:00 AM
Tue, Oct 4
2:00 AM
Tue, Oct 4
3:00 AM
Tue, Oct 4
4:00 AM
Tue, Oct 4
5:00 AM
Tue, Oct 4
6:00 AM
Tue, Oct 4
7:00 AM
Tue, Oct 4
8:00 AM
Tue, Oct 4
9:00 AM
Tue, Oct 4
10:00 AM
Tue, Oct 4
11:00 AM
Tue, Oct 4
12:00 PM
Tue, Oct 4
1:00 PM
Condition
Clear

Clear

Clear

Clear

Clear

Clear

Clear

Clear

Clear

Clear

Clear

Clear

Clear

Clear

Clear

Clear

Clear

Clear

Clear

Clear

Clear

Clear

Clear

Clear

Clouds

Clouds

Clouds

Clouds

Clouds

Clouds

Clouds

Clouds

Clouds

Clouds

Clouds

Clouds

Clouds

Clouds

Clouds

Clouds

Clouds

Clouds

Clear

Clouds

Clouds

Clouds

Clouds

Clouds
Temperature 82°F82°F82°F81°F78°F74°F70°F68°F66°F64°F63°F62°F59°F57°F56°F55°F54°F54°F59°F65°F69°F73°F76°F79°F80°F80°F80°F79°F73°F68°F67°F67°F66°F65°F64°F63°F63°F62°F61°F60°F58°F57°F63°F68°F72°F77°F79°F80°F
Feels Like 81°F81°F81°F80°F77°F73°F69°F67°F65°F63°F62°F61°F59°F57°F55°F54°F53°F53°F59°F64°F69°F73°F76°F78°F80°F80°F80°F79°F73°F68°F67°F66°F65°F64°F63°F63°F62°F62°F61°F59°F57°F57°F62°F67°F72°F76°F79°F80°F
Cloudiness 0%0%0%0%0%0%0%0%0%0%0%0%0%0%0%0%0%0%0%0%0%0%0%3%35%39%38%34%33%34%35%43%47%48%49%50%53%53%52%46%39%32%3%27%35%39%34%39%
Visibility 6 mi6 mi6 mi6 mi6 mi6 mi6 mi6 mi6 mi6 mi6 mi6 mi6 mi6 mi6 mi6 mi6 mi6 mi6 mi6 mi6 mi6 mi6 mi6 mi6 mi6 mi6 mi6 mi6 mi6 mi6 mi6 mi6 mi6 mi6 mi6 mi6 mi6 mi6 mi6 mi6 mi6 mi6 mi6 mi6 mi6 mi6 mi6 mi
Precipitation 0%0%0%0%0%0%0%0%0%0%0%0%0%0%0%0%0%0%0%0%0%0%0%0%0%0%0%0%0%0%0%0%0%0%0%0%0%0%0%0%0%0%0%0%0%0%0%0%
Humidity 39%41%39%39%44%49%55%59%64%68%67%69%75%81%85%88%91%92%77%64%55%49%45%42%40%39%39%41%54%60%61%62%64%66%68%69%70%71%72%76%79%81%69%58%50%44%40%37%
Dew Point 54°F56°F54°F54°F54°F53°F52°F53°F53°F53°F51°F51°F51°F51°F51°F51°F51°F51°F52°F52°F52°F53°F53°F53°F53°F53°F53°F53°F55°F54°F53°F53°F53°F53°F53°F53°F53°F52°F52°F52°F51°F51°F52°F52°F53°F53°F53°F52°F
Pressure 29.97"29.97"29.97"29.97"30"30"30.03"30.06"30.06"30.06"30.06"30.06"30.06"30.06"30.06"30.09"30.09"30.12"30.12"30.12"30.15"30.12"30.12"30.09"30.06"30.03"30.03"30.03"30.03"30.03"30.06"30.09"30.09"30.09"30.09"30.09"30.09"30.09"30.09"30.09"30.12"30.12"30.12"30.15"30.15"30.12"30.12"30.09"
Wind Speed 12 mph12.3 mph12.4 mph11.4 mph11.1 mph10.4 mph10.2 mph10.4 mph8.7 mph8.4 mph9.4 mph8.5 mph7 mph6 mph5.6 mph5.5 mph5.3 mph5 mph6.6 mph7.1 mph6.4 mph5.7 mph4.9 mph4.6 mph4.6 mph5.3 mph5.8 mph6.3 mph5.1 mph5.7 mph5.3 mph5.2 mph4.9 mph3.9 mph4.3 mph3.9 mph3.5 mph1.9 mph2.2 mph3.2 mph4 mph4.2 mph4.4 mph4.4 mph3.5 mph2.9 mph3.5 mph4.9 mph
Wind
Direction
354°
N
354°
N
352°
N
350°
N
351°
N
355°
N
360°
N

N
20°
NNE
19°
NNE
15°
NNE
22°
NNE
20°
NNE
20°
NNE
22°
NNE
31°
NNE
41°
NE
52°
NE
71°
ENE
85°
E
81°
E
76°
ENE
64°
ENE
47°
NE
31°
NNE
25°
NNE
20°
NNE
15°
NNE

N

N
12°
NNE
13°
NNE
25°
NNE
26°
NNE
27°
NNE
45°
NE
78°
ENE
86°
E
89°
E
114°
ESE
131°
SE
132°
SE
131°
SE
146°
SE
169°
S
211°
SSW
253°
WSW
277°
W

Daily Forecast

Date High Low Precip. Humidity
Today
Oct 2

Clear
82 °F
53 °F
0%
35%
Monday
Oct 3

Clear
80 °F
54 °F
0%
45%
Tuesday
Oct 4

Clouds
81 °F
57 °F
0%
37%
Wednesday
Oct 5

Clouds
81 °F
53 °F
0%
22%
Thursday
Oct 6

Clear
85 °F
52 °F
0%
18%
Friday
Oct 7

Clouds
87 °F
59 °F
0%
25%
Saturday
Oct 8

Clouds
78 °F
59 °F
0%
27%
Sunday
Oct 9

Clouds
79 °F
53 °F
0%
26%
Monday
Oct 10

Clouds
80 °F
53 °F
0%
28%
Tuesday
Oct 11

Clear
85 °F
56 °F
0%
27%
Wednesday
Oct 12

Clouds
85 °F
58 °F
0%
32%
Thursday
Oct 13

Clouds
85 °F
58 °F
13%
33%
Friday
Oct 14

Clear
75 °F
49 °F
0%
17%
Saturday
Oct 15

Clouds
83 °F
54 °F
0%
49%
Sunday
Oct 16

Rain
71 °F
63 °F
79%
73%
Monday
Oct 17

Rain
73 °F
64 °F
100%
88%

Temperature 8-14 Day Outlook



Precipitation 8-14 Day Outlook




Quick Links
Mitchell Lake News
Mitchell Lake Photos
Mitchell Lake Videos




About Us
Contact Us
Site Map
Search Site
Advertise With Us
   
www.LakeMitchell.com
THE MITCHELL LAKE WEBSITE

Copyright 2022, Lakes Online
Privacy    |    Legal